[[{"header":{"parameterUnit":"m.s-1","parameterCategory":1,"la1":30.2991,"la2":30.254,"lo1":-89.0895,"lo2":-89.0444,"dy":0.0017,"dx":0.0017,"nx":28,"ny":28,"refTime":"2024-02-20T03:00:00:Z","depth":0,"parameterNumber":2,"parameterNumberName":"U-component_of_WINDS"},"data":[0,0,0,0,0,0,0,0,0,0,0,0,0,0,0,0,0,0,0,0,0,0,0,0,0,0,0,0,0,0,0,0,0,0,0,0,0,0,0,0,0,0,0,0,0,0,0,0,0,0,0,0,0,0,0,0,0,0,2.1555,2.1556,0,2.1656,2.1657,2.1659,2.1637,2.1635,2.1633,2.1631,2.1739,2.1744,2.1748,0,0,0,0,0,0,0,0,0,0,0,0,0,2.1346,2.1349,2.1555,2.1556,2.1558,2.1656,2.1658,2.1659,2.1637,2.1635,2.1633,2.1631,2.1738,2.1743,2.1749,0,0,0,0,0,0,0,0,0,0,0,0,0,2.1441,2.1351,2.1555,2.1559,2.156,2.1656,2.1658,2.1659,2.1638,2.1635,2.1632,2.163,2.1736,2.1743,2.1749,2.1849,0,0,2.1771,2.1774,0,0,0,0,0,0,0,0,2.1435,2.1448,2.1557,2.1558,2.156,2.1631,2.1623,2.1723,2.1639,2.1608,2.1631,2.1628,2.1706,2.1715,2.174,2.1854,2.1859,2.1771,2.1775,2.1778,2.178,0,0,0,0,0,0,0,2.1429,2.1444,2.1595,2.1558,2.156,2.1556,2.1566,2.1642,2.1672,2.1611,2.1609,2.1622,2.1706,2.1734,2.1743,2.186,2.1771,2.1777,2.1781,2.1784,2.2059,2.2062,0,0,0,0,0,0,2.142,2.1439,2.1592,2.1598,2.1489,2.1562,2.1574,2.1611,2.1671,2.1677,2.1624,2.162,2.1723,2.1735,2.1746,2.1865,2.1778,2.1785,2.1789,2.2056,2.2059,2.2063,0,0,0,0,0,0,2.1416,2.1434,2.1588,2.1518,2.1537,2.1569,2.1611,2.1615,2.1642,2.1681,2.1686,2.1646,2.1721,2.1737,2.1823,2.1868,2.1788,2.1794,2.2052,2.2057,2.2061,2.2104,0,0,0,0,0,0,2.141,2.1433,2.147,2.1519,2.1541,2.1662,2.1614,2.1619,2.1654,2.165,2.1703,2.1709,2.172,2.1813,2.183,2.1877,2.18,2.2048,2.2054,2.206,2.2099,2.211,2.2119,0,0,0,0,0,2.1402,2.148,2.1472,2.1491,2.1589,2.1665,2.1677,2.1687,2.1658,2.1696,2.172,2.1708,2.1861,2.1822,2.1841,2.189,2.2045,2.2052,2.2059,2.2094,2.2107,2.2119,0,0,0,0,0,0,2.1437,2.1486,2.1479,2.1574,2.1615,2.1661,2.1709,2.1701,2.1753,2.1747,2.1759,2.1771,2.1858,2.1883,2.1839,2.1989,2.1949,2.196,2.1969,2.1982,2.1992,2.1983,2.1805,0,0,0,0,0,2.1456,2.1512,2.1553,2.1633,2.1654,2.1678,2.1712,2.1715,2.1759,2.1777,2.1808,2.1852,2.1909,2.1948,2.2003,2.2103,2.2113,2.2146,2.2156,2.2165,2.2174,2.2226,2.2241,2.2086,2.2086,2.2086,0,0,2.1495,2.1529,2.1564,2.164,2.1673,2.1731,2.1693,2.1757,2.1801,2.1787,2.1869,2.1894,2.1944,2.2036,2.2079,2.206,2.2219,2.2174,2.218,2.2184,2.2235,2.2249,2.2262,2.2091,2.209,2.2089,0,0,2.1595,2.1627,2.1696,2.1729,2.1778,2.1793,2.181,2.1857,2.1872,2.1955,2.1945,2.1998,2.2098,2.2133,2.2164,2.2276,2.2266,2.2295,2.2347,2.2398,2.241,2.2421,2.2459,2.2473,2.2304,2.2304,2.2304,0,2.1638,2.1725,2.1733,2.1797,2.1831,2.182,2.1889,2.1922,2.1987,2.201,2.1988,2.2112,2.2145,2.2244,2.2271,2.2298,2.2316,2.2288,2.2408,2.2419,2.2429,2.2465,2.248,2.2307,2.2307,2.2306,2.2306,0,2.1774,2.1834,2.1885,2.1945,2.1985,2.2052,2.207,2.211,2.211,2.2128,2.2212,2.2251,2.2313,2.2337,2.234,2.2437,2.2423,2.2405,2.2364,2.2446,2.2481,2.2495,2.2311,2.231,2.2309,2.2308,0,0,2.1899,2.1962,2.198,2.2007,2.206,2.2107,2.2174,2.2233,2.2265,2.2311,2.2366,2.245,2.2432,2.2467,2.2474,2.2519,2.2603,2.2494,2.2495,2.2511,2.271,2.2722,2.2738,2.2597,2.26,2.2602,2.2705,0,2.2002,2.2117,2.2126,2.223,2.2285,2.2275,2.2333,2.2372,2.2391,2.2441,2.2462,2.252,2.2494,2.2514,2.2559,2.2583,2.2642,2.2576,2.2648,2.265,2.2633,2.2757,2.277,2.2866,2.2719,2.2721,2.2723,0,2.2138,2.2185,2.2294,2.2337,2.2361,2.2412,2.2466,2.2515,2.2559,2.2569,2.2607,2.2607,2.2675,2.2634,2.2727,2.2682,2.2712,2.2728,2.2732,2.2738,2.269,2.2764,2.2897,2.2911,2.2745,2.2743,2.2742,0,2.2215,2.2306,2.2382,2.2406,2.2459,2.2495,2.2519,2.256,2.2595,2.2643,2.2665,2.2721,2.2751,2.2795,2.2809,2.2778,2.2902,2.2862,2.2912,2.2911,2.2937,2.2935,2.3075,2.296,2.296,2.296,2.2959,0,2.2328,2.2395,2.2417,2.2464,2.2538,2.2548,2.2622,2.2644,2.268,2.2731,2.2728,2.2776,2.2793,2.2844,2.2857,2.2931,2.2946,2.2955,2.2957,2.2955,2.2953,2.2973,2.2966,2.2964,2.2963,2.2962,2.2961,0,2.2426,2.2444,2.2526,2.2569,2.2581,2.2634,2.2671,2.2716,2.2734,2.2798,2.2814,2.2842,2.2902,2.2921,2.2994,2.3002,2.3089,2.3086,2.3073,2.3073,2.312,2.3115,2.3277,2.3298,2.3171,2.3172,2.3173,0,2.2496,2.2546,2.2594,2.2627,2.2652,2.2706,2.274,2.2753,2.2789,2.2842,2.2881,2.2939,2.2987,2.3083,2.3111,2.3166,2.3163,2.3216,2.3172,2.3166,2.3161,2.3157,2.3161,2.3224,2.3225,2.3227,2.3227,0,2.2617,2.2623,2.2672,2.2724,2.2765,2.2807,2.2848,2.2876,2.2894,2.2935,2.2995,2.3032,2.3105,2.3164,2.322,2.3245,2.3239,2.3241,2.3255,2.3252,2.3241,2.3245,2.3093,2.3237,2.3236,2.3236,2.3235,2.3235,2.2701,2.2745,2.2785,2.2839,2.2871,2.2909,2.2952,2.2975,2.3025,2.3084,2.3089,2.3154,2.3196,2.327,2.3298,2.3349,2.3334,2.3355,2.336,2.3364,2.3367,2.3235,2.336,2.336,2.336,2.3359,2.3359,0,2.282,2.2845,2.2895,2.2951,2.2994,2.2984,2.3028,2.3065,2.3121,2.316,2.3206,2.3275,2.3331,2.3363,2.3419,2.3453,2.3452,2.3467,2.3464,2.3469,2.3378,2.3359,2.3467,2.3467,2.3467,2.3467,2.3467,2.3467,2.2887,2.2959,2.297,2.3058,2.3083,2.3145,2.317,2.3205,2.3236,2.3312,2.3358,2.3378,2.3414,2.3472,2.3523,2.3531,2.3551,2.3568,2.3573,2.3487,2.3476,2.3465,2.3448,2.3572,2.3573,2.366,2.3661,2.3661]},{"header":{"parameterUnit":"m.s-1","parameterCategory":1,"la1":30.2991,"la2":30.254,"lo1":-89.0895,"lo2":-89.0444,"dy":0.0017,"dx":0.0017,"nx":28,"ny":28,"refTime":"2024-02-20T03:00:00:Z","depth":0,"parameterNumber":3,"parameterNumberName":"V-component_of_WINDS"},"data":[0,0,0,0,0,0,0,0,0,0,0,0,0,0,0,0,0,0,0,0,0,0,0,0,0,0,0,0,0,0,0,0,0,0,0,0,0,0,0,0,0,0,0,0,0,0,0,0,0,0,0,0,0,0,0,0,0,0,2.5308,2.5307,0,2.5271,2.5271,2.527,2.5236,2.5235,2.5235,2.5234,2.5195,2.5194,2.5193,0,0,0,0,0,0,0,0,0,0,0,0,0,2.5342,2.5342,2.5308,2.5307,2.5307,2.5271,2.5271,2.527,2.5236,2.5235,2.5235,2.5234,2.5195,2.5194,2.5193,0,0,0,0,0,0,0,0,0,0,0,0,0,2.5319,2.5342,2.5308,2.5285,2.5283,2.5271,2.5271,2.527,2.5236,2.5235,2.5235,2.5234,2.5195,2.5194,2.5193,2.52,0,0,2.519,2.519,0,0,0,0,0,0,0,0,2.532,2.5318,2.5289,2.5287,2.5284,2.5257,2.5268,2.5247,2.5236,2.5254,2.5234,2.5234,2.5216,2.5213,2.5208,2.5198,2.5197,2.519,2.519,2.5189,2.5189,0,0,0,0,0,0,0,2.5322,2.5319,2.5293,2.5289,2.5286,2.5275,2.5271,2.5264,2.5239,2.5252,2.5249,2.5246,2.5214,2.5209,2.5206,2.5196,2.519,2.5189,2.5189,2.5188,2.5186,2.5187,0,0,0,0,0,0,2.5327,2.5321,2.5294,2.5292,2.5301,2.5275,2.5271,2.5267,2.5239,2.5234,2.5246,2.5244,2.5211,2.5208,2.5205,2.5209,2.5189,2.5188,2.5188,2.5186,2.5187,2.5187,0,0,0,0,0,0,2.5328,2.5326,2.5296,2.5306,2.5301,2.5275,2.5271,2.5266,2.5261,2.5234,2.5229,2.5246,2.521,2.5206,2.5201,2.5207,2.5188,2.5187,2.5185,2.5186,2.5187,2.5219,0,0,0,0,0,0,2.533,2.5326,2.533,2.5306,2.5301,2.5294,2.5271,2.5266,2.5259,2.5256,2.5232,2.5228,2.5209,2.5203,2.52,2.5205,2.5186,2.5185,2.5186,2.5187,2.5217,2.522,2.5223,0,0,0,0,0,2.5331,2.534,2.533,2.5327,2.5305,2.5295,2.5291,2.5271,2.526,2.5262,2.5245,2.5229,2.5207,2.5202,2.5199,2.5204,2.5184,2.5185,2.5187,2.5215,2.522,2.5223,0,0,0,0,0,0,2.5366,2.5337,2.5325,2.5328,2.5314,2.5289,2.5292,2.5276,2.5265,2.5262,2.5236,2.5231,2.5228,2.5215,2.5211,2.5208,2.5193,2.5194,2.5216,2.522,2.5223,2.5226,2.5185,0,0,0,0,0,2.5373,2.5369,2.5343,2.5348,2.5341,2.5318,2.5312,2.5297,2.5281,2.5275,2.5258,2.5242,2.5231,2.5225,2.5214,2.5215,2.5207,2.5216,2.522,2.5222,2.5223,2.5219,2.5222,2.5191,2.5191,2.5191,0,0,2.539,2.5373,2.5372,2.5354,2.5342,2.5335,2.5313,2.5308,2.5302,2.5274,2.5268,2.5254,2.5234,2.5231,2.5229,2.5221,2.523,2.5224,2.5226,2.5225,2.5221,2.5224,2.5226,2.5192,2.5192,2.5192,0,0,2.5416,2.5404,2.5405,2.5393,2.5374,2.5358,2.5358,2.5334,2.5324,2.5317,2.5295,2.5287,2.527,2.5256,2.5247,2.5264,2.5248,2.5261,2.5278,2.5275,2.5277,2.5279,2.5284,2.5286,2.5262,2.5262,2.5262,0,2.5438,2.5429,2.5407,2.5403,2.5394,2.5369,2.5368,2.5357,2.5335,2.5329,2.532,2.5296,2.5281,2.5273,2.5277,2.5271,2.5269,2.5264,2.5279,2.5281,2.5282,2.5286,2.5288,2.5264,2.5264,2.5264,2.5264,0,2.5456,2.545,2.5453,2.5432,2.5424,2.5422,2.5398,2.5392,2.5377,2.5361,2.5352,2.5333,2.5316,2.5313,2.5299,2.5302,2.5297,2.5284,2.5269,2.5287,2.529,2.5292,2.5266,2.5266,2.5265,2.5265,0,0,2.5504,2.547,2.5472,2.5461,2.5437,2.5431,2.5426,2.541,2.5404,2.5389,2.5383,2.5367,2.5354,2.5344,2.5327,2.5324,2.5336,2.5311,2.531,2.5315,2.5335,2.5345,2.5347,2.5325,2.5325,2.5325,2.5336,0,2.5525,2.5516,2.5495,2.5492,2.5484,2.5458,2.5453,2.5437,2.5421,2.5411,2.5393,2.5381,2.5366,2.5359,2.5355,2.5336,2.534,2.5335,2.5317,2.5316,2.5322,2.5349,2.5359,2.5371,2.5337,2.5338,2.5338,0,2.5549,2.5535,2.5531,2.5505,2.5501,2.5498,2.548,2.5471,2.5451,2.5439,2.5426,2.5407,2.5398,2.5384,2.5369,2.5366,2.5357,2.5346,2.5346,2.5343,2.5328,2.5345,2.5374,2.5375,2.534,2.534,2.5339,0,2.5582,2.5562,2.5557,2.5549,2.5519,2.5516,2.5504,2.5483,2.5474,2.5457,2.545,2.5433,2.5423,2.5409,2.5385,2.5377,2.5372,2.5357,2.536,2.5361,2.536,2.536,2.5387,2.5356,2.5356,2.5356,2.5356,0,2.5606,2.5605,2.5571,2.5568,2.5564,2.5538,2.5535,2.5519,2.55,2.5491,2.5468,2.546,2.5429,2.5416,2.5397,2.5386,2.5383,2.5371,2.5366,2.5373,2.5374,2.5366,2.5364,2.5356,2.5356,2.5356,2.5356,0,2.5643,2.562,2.5612,2.5584,2.5577,2.5575,2.555,2.5544,2.5526,2.5516,2.5511,2.5483,2.5467,2.5441,2.5418,2.5404,2.5396,2.5388,2.5403,2.54,2.5404,2.5404,2.5426,2.5427,2.5397,2.5397,2.5398,0,2.5659,2.5657,2.5629,2.5622,2.561,2.5599,2.5589,2.5563,2.5553,2.5528,2.5525,2.5507,2.5491,2.5466,2.5442,2.5423,2.5414,2.5423,2.5411,2.5417,2.5412,2.5412,2.541,2.5425,2.5426,2.5426,2.5427,0,2.5691,2.5679,2.5667,2.565,2.5639,2.5624,2.5608,2.5603,2.5573,2.5563,2.5546,2.5534,2.5509,2.5491,2.5468,2.5452,2.5433,2.543,2.543,2.5437,2.5445,2.5439,2.541,2.543,2.543,2.5429,2.5429,2.5429,2.5716,2.5712,2.5691,2.5677,2.5662,2.5647,2.564,2.562,2.5607,2.5585,2.557,2.5554,2.553,2.5498,2.5483,2.5468,2.546,2.546,2.546,2.546,2.5461,2.5448,2.5464,2.5464,2.5464,2.5464,2.5463,0,2.5745,2.573,2.5717,2.5695,2.5683,2.5668,2.5648,2.5639,2.5626,2.5606,2.5591,2.557,2.5551,2.5525,2.5504,2.5497,2.5487,2.5492,2.5492,2.5488,2.5471,2.5473,2.55,2.55,2.55,2.55,2.55,2.55,2.5758,2.575,2.5736,2.5719,2.5703,2.5688,2.5677,2.5662,2.5646,2.5625,2.561,2.5593,2.5569,2.5546,2.5527,2.5519,2.5512,2.5519,2.5508,2.5493,2.5489,2.5486,2.5488,2.5518,2.5518,2.5527,2.5527,2.5527]}]]